Location: Unspecified
(0.0000°N, 0.0000°E)
Time: 18:07:17
(UTC+00:00)

Tiangong 1 - Pass Details

Date: 15 January 2017
Orbit: 337 x 362 km, 42.8° (Epoch: 25 February)

Event Time Altitude Azimuth Distance (km) Brightness Sun altitude
Rises 19:16:52 0° 220° (SW) 2,175 6.0 -15.7°
Reaches altitude 10° 19:18:56 10° 217° (SW) 1,321 4.7 -16.1°
Maximum altitude 19:21:53 64° 135° (SE) 390 0.9 -16.8°
Enters shadow 19:22:13 57° 94° (E) 415 0.8 -16.9°
